Time,TemperatureF,DewpointF,PressureIn,WindDirection,WindDirectionDegrees,WindSpeedMPH,WindSpeedGustMPH,Humidity,HourlyPrecipIn,Conditions,Clouds,dailyrainin,SoftwareType,DateUTC
2015-01-29 00:02:00,22.5,-10.6,30.18,NW,321,6.3,6.3,22,0.00,,---,0.00,VWS V14.01,2015-01-29 05:02:00,
2015-01-29 00:07:00,22.6,-10.5,30.18,NW,322,4.0,6.3,22,0.00,,---,0.00,VWS V14.01,2015-01-29 05:07:00,
2015-01-29 00:12:00,22.8,-10.3,30.18,NW,320,3.6,5.8,22,0.00,,---,0.00,VWS V14.01,2015-01-29 05:12:00,
2015-01-29 00:17:00,22.8,-10.3,30.21,NNW,328,3.6,8.1,22,0.00,,---,0.00,VWS V14.01,2015-01-29 05:17:00,
2015-01-29 00:22:00,22.8,-10.3,30.21,NW,313,3.1,4.0,22,0.00,,---,0.00,VWS V14.01,2015-01-29 05:22:00,
2015-01-29 00:27:00,22.6,-10.5,30.21,NW,320,3.1,3.1,22,0.00,,---,0.00,VWS V14.01,2015-01-29 05:27:00,
2015-01-29 00:32:00,22.6,-10.5,30.18,NW,318,3.6,3.6,22,0.00,,---,0.00,VWS V14.01,2015-01-29 05:32:00,
2015-01-29 00:37:00,22.3,-10.8,30.18,NW,325,0.0,0.0,22,0.00,,---,0.00,VWS V14.01,2015-01-29 05:37:00,
2015-01-29 00:42:00,22.1,-10.9,30.18,NW,320,0.0,4.0,22,0.00,,---,0.00,VWS V14.01,2015-01-29 05:42:00,
2015-01-29 00:47:00,21.9,-11.1,30.18,NW,320,3.6,3.6,22,0.00,,---,0.00,VWS V14.01,2015-01-29 05:47:00,
2015-01-29 00:52:00,21.7,-11.2,30.18,NW,325,3.6,3.6,22,0.00,,---,0.00,VWS V14.01,2015-01-29 05:52:00,
2015-01-29 00:57:00,21.4,-11.5,30.18,NNW,341,3.1,3.1,22,0.00,,---,0.00,VWS V14.01,2015-01-29 05:57:00,
2015-01-29 01:02:00,21.2,-11.7,30.18,North,357,0.0,0.0,22,0.00,,---,0.00,VWS V14.01,2015-01-29 06:02:00,
2015-01-29 01:07:00,20.8,-12.0,30.18,North,357,0.0,0.0,22,0.00,,---,0.00,VWS V14.01,2015-01-29 06:07:00,
2015-01-29 01:12:00,20.5,-12.3,30.18,North,357,0.0,0.0,22,0.00,,---,0.00,VWS V14.01,2015-01-29 06:12:00,
2015-01-29 01:17:00,19.9,-12.8,30.21,North,357,0.0,0.0,22,0.00,,---,0.00,VWS V14.01,2015-01-29 06:17:00,
2015-01-29 01:22:00,19.2,-12.5,30.21,North,357,0.0,0.0,23,0.00,,---,0.00,VWS V14.01,2015-01-29 06:22:00,
2015-01-29 01:27:00,18.5,-13.1,30.21,North,357,0.0,0.0,23,0.00,,---,0.00,VWS V14.01,2015-01-29 06:27:00,
2015-01-29 01:32:00,18.0,-13.6,30.21,North,357,0.0,0.0,23,0.00,,---,0.00,VWS V14.01,2015-01-29 06:32:00,
2015-01-29 01:37:00,17.6,-13.9,30.21,North,357,0.0,0.0,23,0.00,,---,0.00,VWS V14.01,2015-01-29 06:37:00,
2015-01-29 01:42:00,17.1,-14.3,30.21,North,357,0.0,0.0,23,0.00,,---,0.00,VWS V14.01,2015-01-29 06:42:00,
2015-01-29 01:47:00,16.3,-15.0,30.21,North,357,0.0,0.0,23,0.00,,---,0.00,VWS V14.01,2015-01-29 06:47:00,
2015-01-29 01:52:00,15.3,-15.1,30.21,North,357,0.0,0.0,24,0.00,,---,0.00,VWS V14.01,2015-01-29 06:52:00,
2015-01-29 01:57:00,14.5,-15.7,30.21,NW,313,0.0,0.0,24,0.00,,---,0.00,VWS V14.01,2015-01-29 06:57:00,
2015-01-29 02:02:00,14.4,-15.8,30.21,NNW,331,0.0,0.0,24,0.00,,---,0.00,VWS V14.01,2015-01-29 07:02:00,
2015-01-29 02:07:00,15.3,-15.1,30.21,NNW,337,0.0,0.0,24,0.00,,---,0.00,VWS V14.01,2015-01-29 07:07:00,
2015-01-29 02:12:00,16.0,-15.3,30.21,NW,314,4.9,4.9,23,0.00,,---,0.00,VWS V14.01,2015-01-29 07:12:00,
2015-01-29 02:17:00,17.1,-14.3,30.21,NW,310,2.7,4.0,23,0.00,,---,0.00,VWS V14.01,2015-01-29 07:17:00,
2015-01-29 02:22:00,17.2,-14.2,30.21,NW,310,0.0,0.0,23,0.00,,---,0.00,VWS V14.01,2015-01-29 07:22:00,
2015-01-29 02:27:00,16.9,-14.5,30.21,NW,314,0.0,0.0,23,0.00,,---,0.00,VWS V14.01,2015-01-29 07:27:00,
2015-01-29 02:32:00,16.7,-14.6,30.21,NW,314,0.0,0.0,23,0.00,,---,0.00,VWS V14.01,2015-01-29 07:32:00,
2015-01-29 02:37:00,16.0,-15.3,30.21,NW,314,0.0,0.0,23,0.00,,---,0.00,VWS V14.01,2015-01-29 07:37:00,
2015-01-29 02:42:00,15.4,-14.9,30.21,NW,314,0.0,0.0,24,0.00,,---,0.00,VWS V14.01,2015-01-29 07:42:00,
2015-01-29 02:47:00,15.1,-15.2,30.24,NW,314,0.0,0.0,24,0.00,,---,0.00,VWS V14.01,2015-01-29 07:47:00,
2015-01-29 02:52:00,14.4,-15.8,30.24,NW,314,0.0,0.0,24,0.00,,---,0.00,VWS V14.01,2015-01-29 07:52:00,
2015-01-29 02:57:00,14.4,-15.8,30.24,NW,314,0.0,0.0,24,0.00,,---,0.00,VWS V14.01,2015-01-29 07:57:00,
2015-01-29 03:02:00,14.4,-15.8,30.21,NW,314,0.0,0.0,24,0.00,,---,0.00,VWS V14.01,2015-01-29 08:02:00,
2015-01-29 03:07:00,13.8,-16.3,30.21,NW,314,0.0,0.0,24,0.00,,---,0.00,VWS V14.01,2015-01-29 08:07:00,
2015-01-29 03:12:00,13.1,-16.9,30.21,NW,314,0.0,0.0,24,0.00,,---,0.00,VWS V14.01,2015-01-29 08:12:00,
2015-01-29 03:17:00,12.6,-17.4,30.21,NW,314,0.0,0.0,24,0.00,,---,0.00,VWS V14.01,2015-01-29 08:17:00,
2015-01-29 03:22:00,12.2,-17.7,30.24,NW,314,0.0,0.0,24,0.00,,---,0.00,VWS V14.01,2015-01-29 08:22:00,
2015-01-29 03:27:00,12.0,-17.8,30.24,NW,314,0.0,0.0,24,0.00,,---,0.00,VWS V14.01,2015-01-29 08:27:00,
2015-01-29 03:32:00,11.7,-18.1,30.21,NW,314,0.0,0.0,24,0.00,,---,0.00,VWS V14.01,2015-01-29 08:32:00,
2015-01-29 03:37:00,11.3,-18.5,30.21,NW,314,0.0,0.0,24,0.00,,---,0.00,VWS V14.01,2015-01-29 08:37:00,
2015-01-29 03:42:00,11.1,-18.6,30.21,NW,314,0.0,0.0,24,0.00,,---,0.00,VWS V14.01,2015-01-29 08:42:00,
2015-01-29 03:47:00,10.9,-18.8,30.21,NW,314,0.0,0.0,24,0.00,,---,0.00,VWS V14.01,2015-01-29 08:47:00,
2015-01-29 03:52:00,10.9,-18.8,30.21,NW,314,0.0,0.0,24,0.00,,---,0.00,VWS V14.01,2015-01-29 08:52:00,
2015-01-29 03:57:00,10.4,-19.2,30.21,NW,314,0.0,0.0,24,0.00,,---,0.00,VWS V14.01,2015-01-29 08:57:00,
2015-01-29 04:02:00,10.2,-19.4,30.21,NW,314,0.0,0.0,24,0.00,,---,0.00,VWS V14.01,2015-01-29 09:02:00,
2015-01-29 04:07:00,10.2,-19.4,30.21,NW,314,0.0,0.0,24,0.00,,---,0.00,VWS V14.01,2015-01-29 09:07:00,
2015-01-29 04:12:00,10.4,-19.2,30.21,NW,314,0.0,0.0,24,0.00,,---,0.00,VWS V14.01,2015-01-29 09:12:00,
2015-01-29 04:17:00,10.4,-19.2,30.21,NW,314,0.0,0.0,24,0.00,,---,0.00,VWS V14.01,2015-01-29 09:17:00,
2015-01-29 04:22:00,10.4,-19.2,30.21,NW,314,0.0,0.0,24,0.00,,---,0.00,VWS V14.01,2015-01-29 09:22:00,
2015-01-29 04:27:00,10.2,-19.4,30.21,NW,314,0.0,0.0,24,0.00,,---,0.00,VWS V14.01,2015-01-29 09:27:00,
2015-01-29 04:32:00,9.9,-19.7,30.21,NW,314,0.0,0.0,24,0.00,,---,0.00,VWS V14.01,2015-01-29 09:32:00,
2015-01-29 04:37:00,9.5,-20.0,30.21,NW,314,0.0,0.0,24,0.00,,---,0.00,VWS V14.01,2015-01-29 09:37:00,
2015-01-29 04:42:00,9.7,-19.9,30.21,NW,314,0.0,0.0,24,0.00,,---,0.00,VWS V14.01,2015-01-29 09:42:00,
2015-01-29 04:47:00,9.9,-19.7,30.21,NW,314,0.0,0.0,24,0.00,,---,0.00,VWS V14.01,2015-01-29 09:47:00,
2015-01-29 04:52:00,9.5,-20.0,30.21,NW,314,0.0,0.0,24,0.00,,---,0.00,VWS V14.01,2015-01-29 09:52:00,
2015-01-29 04:57:00,9.5,-20.0,30.21,NW,314,0.0,0.0,24,0.00,,---,0.00,VWS V14.01,2015-01-29 09:57:00,
2015-01-29 05:02:00,9.5,-20.0,30.21,NW,314,0.0,0.0,24,0.00,,---,0.00,VWS V14.01,2015-01-29 10:02:00,
2015-01-29 05:07:00,9.3,-20.2,30.21,NW,314,0.0,0.0,24,0.00,,---,0.00,VWS V14.01,2015-01-29 10:07:00,
2015-01-29 05:12:00,9.3,-20.2,30.21,NW,314,0.0,0.0,24,0.00,,---,0.00,VWS V14.01,2015-01-29 10:12:00,
2015-01-29 05:17:00,9.1,-20.3,30.21,NW,314,0.0,0.0,24,0.00,,---,0.00,VWS V14.01,2015-01-29 10:17:00,
2015-01-29 05:22:00,9.0,-20.5,30.21,NW,314,0.0,0.0,24,0.00,,---,0.00,VWS V14.01,2015-01-29 10:22:00,
2015-01-29 05:27:00,8.8,-20.6,30.21,NW,314,0.0,0.0,24,0.00,,---,0.00,VWS V14.01,2015-01-29 10:27:00,
2015-01-29 05:32:00,8.8,-20.6,30.21,NW,314,0.0,0.0,24,0.00,,---,0.00,VWS V14.01,2015-01-29 10:32:00,
2015-01-29 05:37:00,9.0,-20.5,30.21,NW,314,0.0,0.0,24,0.00,,---,0.00,VWS V14.01,2015-01-29 10:37:00,
2015-01-29 05:42:00,8.6,-20.8,30.21,NW,314,0.0,0.0,24,0.00,,---,0.00,VWS V14.01,2015-01-29 10:42:00,
2015-01-29 05:47:00,8.2,-21.1,30.21,NW,314,0.0,0.0,24,0.00,,---,0.00,VWS V14.01,2015-01-29 10:47:00,
2015-01-29 05:52:00,7.9,-21.4,30.21,NW,314,0.0,0.0,24,0.00,,---,0.00,VWS V14.01,2015-01-29 10:52:00,
2015-01-29 05:57:00,7.5,-21.7,30.21,NW,314,0.0,0.0,24,0.00,,---,0.00,VWS V14.01,2015-01-29 10:57:00,
2015-01-29 06:02:00,7.2,-22.0,30.21,NW,314,0.0,0.0,24,0.00,,---,0.00,VWS V14.01,2015-01-29 11:02:00,
2015-01-29 06:07:00,7.3,-21.9,30.21,NW,314,0.0,0.0,24,0.00,,---,0.00,VWS V14.01,2015-01-29 11:07:00,
2015-01-29 06:11:00,7.5,-21.7,30.21,NW,314,0.0,0.0,24,0.00,,---,0.00,VWS V14.01,2015-01-29 11:11:00,
2015-01-29 06:16:00,7.7,-21.6,30.21,NW,314,0.0,0.0,24,0.00,,---,0.00,VWS V14.01,2015-01-29 11:16:00,
2015-01-29 06:21:00,7.9,-21.4,30.21,NW,314,0.0,0.0,24,0.00,,---,0.00,VWS V14.01,2015-01-29 11:21:00,
2015-01-29 06:26:00,7.9,-21.4,30.21,NW,314,0.0,0.0,24,0.00,,---,0.00,VWS V14.01,2015-01-29 11:26:00,
2015-01-29 06:31:00,7.9,-21.4,30.21,NW,314,0.0,0.0,24,0.00,,---,0.00,VWS V14.01,2015-01-29 11:31:00,
2015-01-29 06:36:00,7.9,-21.4,30.24,NW,314,0.0,0.0,24,0.00,,---,0.00,VWS V14.01,2015-01-29 11:36:00,
2015-01-29 06:41:00,7.5,-21.7,30.24,NW,314,0.0,0.0,24,0.00,,---,0.00,VWS V14.01,2015-01-29 11:41:00,
2015-01-29 06:46:00,7.2,-22.0,30.24,NW,314,0.0,0.0,24,0.00,,---,0.00,VWS V14.01,2015-01-29 11:46:00,
2015-01-29 06:51:00,6.8,-22.3,30.24,NW,314,0.0,0.0,24,0.00,,---,0.00,VWS V14.01,2015-01-29 11:51:00,
2015-01-29 06:56:00,6.8,-22.3,30.24,NW,314,0.0,0.0,24,0.00,,---,0.00,VWS V14.01,2015-01-29 11:56:00,
2015-01-29 07:01:00,6.8,-22.3,30.24,NW,314,0.0,0.0,24,0.00,,---,0.00,VWS V14.01,2015-01-29 12:01:00,
2015-01-29 07:06:00,6.8,-22.3,30.24,NW,314,0.0,0.0,24,0.00,,---,0.00,VWS V14.01,2015-01-29 12:06:00,
2015-01-29 07:11:00,6.8,-22.3,30.24,NW,314,0.0,0.0,24,0.00,,---,0.00,VWS V14.01,2015-01-29 12:11:00,
2015-01-29 07:16:00,6.4,-22.6,30.24,NW,314,0.0,0.0,24,0.00,,---,0.00,VWS V14.01,2015-01-29 12:16:00,
2015-01-29 07:21:00,6.3,-22.8,30.24,NW,314,0.0,0.0,24,0.00,,---,0.00,VWS V14.01,2015-01-29 12:21:00,
2015-01-29 07:26:00,6.3,-22.8,30.24,NW,314,0.0,0.0,24,0.00,,---,0.00,VWS V14.01,2015-01-29 12:26:00,
2015-01-29 07:31:00,6.4,-22.6,30.24,NW,314,0.0,0.0,24,0.00,,---,0.00,VWS V14.01,2015-01-29 12:31:00,
2015-01-29 07:36:00,7.3,-21.9,30.24,NW,313,0.0,0.0,24,0.00,,---,0.00,VWS V14.01,2015-01-29 12:36:00,
2015-01-29 07:41:00,7.7,-21.6,30.24,NW,314,0.0,0.0,24,0.00,,---,0.00,VWS V14.01,2015-01-29 12:41:00,
2015-01-29 07:46:00,7.7,-21.6,30.24,NW,314,0.0,0.0,24,0.00,,---,0.00,VWS V14.01,2015-01-29 12:46:00,
2015-01-29 07:51:00,7.9,-21.4,30.24,NW,313,0.0,0.0,24,0.00,,---,0.00,VWS V14.01,2015-01-29 12:51:00,
2015-01-29 07:56:00,8.4,-20.9,30.24,NW,313,0.0,0.0,24,0.00,,---,0.00,VWS V14.01,2015-01-29 12:56:00,
2015-01-29 08:01:00,9.3,-20.2,30.21,NW,313,0.0,0.0,24,0.00,,---,0.00,VWS V14.01,2015-01-29 13:01:00,
2015-01-29 08:06:00,9.7,-19.9,30.21,NW,313,0.0,0.0,24,0.00,,---,0.00,VWS V14.01,2015-01-29 13:06:00,
2015-01-29 08:11:00,10.2,-19.4,30.21,NW,314,0.0,0.0,24,0.00,,---,0.00,VWS V14.01,2015-01-29 13:11:00,
2015-01-29 08:16:00,10.8,-18.9,30.21,NW,314,0.0,0.0,24,0.00,,---,0.00,VWS V14.01,2015-01-29 13:16:00,
2015-01-29 08:21:00,11.7,-18.1,30.24,NW,314,0.0,0.0,24,0.00,,---,0.00,VWS V14.01,2015-01-29 13:21:00,
2015-01-29 08:26:00,12.6,-17.4,30.24,NW,313,0.0,0.0,24,0.00,,---,0.00,VWS V14.01,2015-01-29 13:26:00,
2015-01-29 08:31:00,14.4,-10.7,30.24,NW,313,0.0,0.0,31,0.00,,---,0.00,VWS V14.01,2015-01-29 13:31:00,
2015-01-29 08:36:00,16.5,-8.8,30.24,NW,313,0.0,0.0,31,0.00,,---,0.00,VWS V14.01,2015-01-29 13:36:00,
2015-01-29 08:41:00,18.7,-7.6,30.24,NW,314,0.0,0.0,30,0.00,,---,0.00,VWS V14.01,2015-01-29 13:41:00,
2015-01-29 08:46:00,20.1,-6.3,30.24,NW,314,0.0,0.0,30,0.00,,---,0.00,VWS V14.01,2015-01-29 13:46:00,
2015-01-29 08:51:00,21.6,-5.1,30.21,NW,314,0.0,0.0,30,0.00,,---,0.00,VWS V14.01,2015-01-29 13:51:00,
2015-01-29 08:56:00,23.4,-4.2,30.21,NW,314,0.0,0.0,29,0.00,,---,0.00,VWS V14.01,2015-01-29 13:56:00,
2015-01-29 09:01:00,24.6,-4.6,30.21,NW,314,0.0,0.0,27,0.00,,---,0.00,VWS V14.01,2015-01-29 14:01:00,
2015-01-29 09:06:00,24.4,-7.2,30.21,NNE,20,2.7,4.0,24,0.00,,---,0.00,VWS V14.01,2015-01-29 14:06:00,
2015-01-29 09:11:00,23.4,-9.9,30.21,North,11,4.9,4.9,22,0.00,,---,0.00,VWS V14.01,2015-01-29 14:11:00,
2015-01-29 09:16:00,22.8,-10.3,30.21,NE,41,2.7,3.1,22,0.00,,---,0.00,VWS V14.01,2015-01-29 14:16:00,
2015-01-29 09:21:00,22.5,-10.6,30.21,NNE,29,5.4,5.8,22,0.00,,---,0.00,VWS V14.01,2015-01-29 14:21:00,
2015-01-29 09:26:00,22.8,-10.3,30.21,NNE,17,5.4,5.4,22,0.00,,---,0.00,VWS V14.01,2015-01-29 14:26:00,
2015-01-29 09:31:00,23.2,-10.0,30.21,NNE,24,4.0,4.0,22,0.00,,---,0.00,VWS V14.01,2015-01-29 14:31:00,
2015-01-29 09:36:00,24.4,-8.9,30.21,NNE,24,0.0,0.0,22,0.00,,---,0.00,VWS V14.01,2015-01-29 14:36:00,
2015-01-29 09:41:00,26.1,-8.5,30.21,NW,321,0.0,0.0,21,0.00,,---,0.00,VWS V14.01,2015-01-29 14:41:00,
2015-01-29 09:46:00,26.6,-8.1,30.21,NW,323,2.2,3.6,21,0.00,,---,0.00,VWS V14.01,2015-01-29 14:46:00,
2015-01-29 09:51:00,27.7,-7.2,30.21,NW,324,0.0,0.0,21,0.00,,---,0.00,VWS V14.01,2015-01-29 14:51:00,
2015-01-29 09:56:00,29.3,-6.8,30.21,NW,324,0.0,0.0,20,0.00,,---,0.00,VWS V14.01,2015-01-29 14:56:00,
2015-01-29 10:01:00,29.5,-6.6,30.21,NW,323,0.0,0.0,20,0.00,,---,0.00,VWS V14.01,2015-01-29 15:01:00,
2015-01-29 10:06:00,29.3,-6.8,30.21,NW,322,0.0,0.0,20,0.00,,---,0.00,VWS V14.01,2015-01-29 15:06:00,
2015-01-29 10:11:00,29.1,-6.9,30.21,North,1,0.0,0.0,20,0.00,,---,0.00,VWS V14.01,2015-01-29 15:11:00,
2015-01-29 10:16:00,28.8,-7.2,30.21,North,1,0.0,0.0,20,0.00,,---,0.00,VWS V14.01,2015-01-29 15:16:00,
2015-01-29 10:21:00,30.0,-6.2,30.21,North,1,0.0,0.0,20,0.00,,---,0.00,VWS V14.01,2015-01-29 15:21:00,
2015-01-29 10:26:00,31.1,-5.3,30.21,North,1,0.0,0.0,20,0.00,,---,0.00,VWS V14.01,2015-01-29 15:26:00,
2015-01-29 10:31:00,31.6,-4.8,30.21,North,2,0.0,0.0,20,0.00,,---,0.00,VWS V14.01,2015-01-29 15:31:00,
2015-01-29 10:36:00,30.7,-5.6,30.21,North,8,0.0,0.0,20,0.00,,---,0.00,VWS V14.01,2015-01-29 15:36:00,
2015-01-29 10:41:00,30.6,-5.7,30.21,North,8,0.0,0.0,20,0.00,,---,0.00,VWS V14.01,2015-01-29 15:41:00,
2015-01-29 10:46:00,29.5,-6.6,30.21,SSE,153,3.1,3.1,20,0.00,,---,0.00,VWS V14.01,2015-01-29 15:46:00,
2015-01-29 10:51:00,28.8,-7.2,30.21,SE,143,3.1,3.1,20,0.00,,---,0.00,VWS V14.01,2015-01-29 15:51:00,
2015-01-29 10:56:00,28.4,-6.5,30.21,ESE,123,0.0,0.0,21,0.00,,---,0.00,VWS V14.01,2015-01-29 15:56:00,
2015-01-29 11:01:00,28.4,-6.5,30.21,ESE,109,2.7,2.7,21,0.00,,---,0.00,VWS V14.01,2015-01-29 16:01:00,
2015-01-29 11:06:00,28.6,-7.4,30.21,East,96,0.0,0.0,20,0.00,,---,0.00,VWS V14.01,2015-01-29 16:06:00,
2015-01-29 11:11:00,28.8,-7.2,30.21,SE,132,2.7,4.0,20,0.00,,---,0.00,VWS V14.01,2015-01-29 16:11:00,
2015-01-29 11:16:00,29.1,-6.9,30.21,SE,130,0.0,3.1,20,0.00,,---,0.00,VWS V14.01,2015-01-29 16:16:00,
2015-01-29 11:21:00,29.5,-6.6,30.18,East,101,2.7,2.7,20,0.00,,---,0.00,VWS V14.01,2015-01-29 16:21:00,
2015-01-29 11:26:00,30.0,-6.2,30.18,SE,142,2.2,3.1,20,0.00,,---,0.00,VWS V14.01,2015-01-29 16:26:00,
2015-01-29 11:31:00,30.4,-5.9,30.18,East,101,3.1,3.1,20,0.00,,---,0.00,VWS V14.01,2015-01-29 16:31:00,
2015-01-29 11:36:00,30.7,-5.6,30.18,East,91,0.0,0.0,20,0.00,,---,0.00,VWS V14.01,2015-01-29 16:36:00,
2015-01-29 11:41:00,30.7,-5.6,30.18,East,90,4.0,4.0,20,0.00,,---,0.00,VWS V14.01,2015-01-29 16:41:00,
2015-01-29 11:46:00,30.7,-5.6,30.18,ENE,68,0.0,2.7,20,0.00,,---,0.00,VWS V14.01,2015-01-29 16:46:00,
2015-01-29 11:51:00,31.5,-5.0,30.18,NE,56,0.0,0.0,20,0.00,,---,0.00,VWS V14.01,2015-01-29 16:51:00,
2015-01-29 11:56:00,31.6,-4.8,30.18,East,93,0.0,0.0,20,0.00,,---,0.00,VWS V14.01,2015-01-29 16:56:00,
2015-01-29 12:01:00,31.5,-5.0,30.18,NE,37,2.2,4.0,20,0.00,,---,0.00,VWS V14.01,2015-01-29 17:01:00,
2015-01-29 12:06:00,31.8,-4.7,30.18,ENE,66,0.0,0.0,20,0.00,,---,0.00,VWS V14.01,2015-01-29 17:06:00,
2015-01-29 12:11:00,32.5,-4.1,30.18,ENE,65,0.0,0.0,20,0.00,,---,0.00,VWS V14.01,2015-01-29 17:11:00,
2015-01-29 12:16:00,33.3,-3.5,30.18,ENE,73,0.0,0.0,20,0.00,,---,0.00,VWS V14.01,2015-01-29 17:16:00,
2015-01-29 12:21:00,33.3,-3.5,30.15,SSE,163,0.0,0.0,20,0.00,,---,0.00,VWS V14.01,2015-01-29 17:21:00,
2015-01-29 12:26:00,33.3,-3.5,30.15,NW,319,2.7,3.6,20,0.00,,---,0.00,VWS V14.01,2015-01-29 17:26:00,
2015-01-29 12:31:00,33.6,-3.2,30.15,West,275,0.0,0.0,20,0.00,,---,0.00,VWS V14.01,2015-01-29 17:31:00,
2015-01-29 12:36:00,33.4,-3.3,30.15,West,274,0.0,0.0,20,0.00,,---,0.00,VWS V14.01,2015-01-29 17:36:00,
2015-01-29 12:41:00,33.6,-3.2,30.15,NNE,24,2.7,3.1,20,0.00,,---,0.00,VWS V14.01,2015-01-29 17:41:00,
2015-01-29 12:46:00,33.3,-3.5,30.15,NNE,27,0.0,0.0,20,0.00,,---,0.00,VWS V14.01,2015-01-29 17:46:00,
2015-01-29 12:51:00,34.2,-2.7,30.12,NNE,31,0.0,0.0,20,0.00,,---,0.00,VWS V14.01,2015-01-29 17:51:00,
2015-01-29 12:54:00,34.3,-2.6,30.12,NNE,31,0.0,0.0,20,0.00,,---,0.00,VWS V14.01,2015-01-29 17:54:00,
2015-01-29 12:59:00,34.9,-2.1,30.12,NNE,12,0.0,0.0,20,0.00,,---,0.00,VWS V14.01,2015-01-29 17:59:00,
2015-01-29 13:03:00,35.1,-2.0,30.12,North,10,0.0,0.0,20,0.00,,---,0.00,VWS V14.01,2015-01-29 18:03:00,
2015-01-29 13:04:00,35.1,-2.0,30.12,West,263,2.7,2.7,20,0.00,,---,0.00,VWS V14.01,2015-01-29 18:04:00,
2015-01-29 13:09:00,34.9,-2.1,30.12,WNW,303,0.0,3.6,20,0.00,,---,0.00,VWS V14.01,2015-01-29 18:09:00,
2015-01-29 13:14:00,34.5,-2.4,30.12,NNW,329,0.0,0.0,20,0.00,,---,0.00,VWS V14.01,2015-01-29 18:14:00,
2015-01-29 13:19:00,34.5,-2.4,30.12,NW,318,4.9,5.8,20,0.00,,---,0.00,VWS V14.01,2015-01-29 18:19:00,
2015-01-29 13:24:00,34.3,-2.6,30.12,NNW,328,5.8,5.8,20,0.00,,---,0.00,VWS V14.01,2015-01-29 18:24:00,
2015-01-29 13:29:00,34.0,-2.9,30.12,NW,305,0.0,2.2,20,0.00,,---,0.00,VWS V14.01,2015-01-29 18:29:00,
2015-01-29 13:34:00,34.2,-2.7,30.12,NNW,331,3.1,3.1,20,0.00,,---,0.00,VWS V14.01,2015-01-29 18:34:00,
2015-01-29 13:39:00,34.3,-2.6,30.12,NW,313,3.1,3.1,20,0.00,,---,0.00,VWS V14.01,2015-01-29 18:39:00,
2015-01-29 13:44:00,34.3,-2.6,30.12,NNW,342,0.0,0.0,20,0.00,,---,0.00,VWS V14.01,2015-01-29 18:44:00,
2015-01-29 13:49:00,34.5,-2.4,30.09,West,280,0.0,0.0,20,0.00,,---,0.00,VWS V14.01,2015-01-29 18:49:00,
2015-01-29 13:54:00,34.9,-2.1,30.09,NW,312,0.0,0.0,20,0.00,,---,0.00,VWS V14.01,2015-01-29 18:54:00,
2015-01-29 13:59:00,35.2,-1.8,30.09,NW,320,2.7,2.7,20,0.00,,---,0.00,VWS V14.01,2015-01-29 18:59:00,
2015-01-29 14:04:00,35.1,-2.0,30.09,NW,322,3.6,3.6,20,0.00,,---,0.00,VWS V14.01,2015-01-29 19:04:00,
2015-01-29 14:09:00,35.1,-2.0,30.09,NW,322,0.0,0.0,20,0.00,,---,0.00,VWS V14.01,2015-01-29 19:09:00,
2015-01-29 14:13:00,35.1,-2.0,30.09,North,10,2.7,2.7,20,0.00,,---,0.00,VWS V14.01,2015-01-29 19:13:00,
2015-01-29 14:18:00,34.9,-2.1,30.09,North,6,0.0,0.0,20,0.00,,---,0.00,VWS V14.01,2015-01-29 19:18:00,
2015-01-29 14:23:00,35.2,-1.8,30.09,NW,317,2.2,2.7,20,0.00,,---,0.00,VWS V14.01,2015-01-29 19:23:00,
2015-01-29 14:28:00,35.6,-2.6,30.09,NW,316,0.0,0.0,19,0.00,,---,0.00,VWS V14.01,2015-01-29 19:28:00,
2015-01-29 14:33:00,35.6,-2.6,30.06,NW,316,0.0,0.0,19,0.00,,---,0.00,VWS V14.01,2015-01-29 19:33:00,
2015-01-29 14:38:00,35.6,-2.6,30.06,NNW,346,0.0,0.0,19,0.00,,---,0.00,VWS V14.01,2015-01-29 19:38:00,
2015-01-29 14:43:00,35.6,-2.6,30.06,NNW,342,0.0,0.0,19,0.00,,---,0.00,VWS V14.01,2015-01-29 19:43:00,
2015-01-29 14:48:00,35.2,-1.8,30.06,East,87,0.0,0.0,20,0.00,,---,0.00,VWS V14.01,2015-01-29 19:48:00,
2015-01-29 14:53:00,34.9,-2.1,30.06,East,87,0.0,0.0,20,0.00,,---,0.00,VWS V14.01,2015-01-29 19:53:00,
2015-01-29 14:58:00,34.9,-2.1,30.06,East,87,0.0,0.0,20,0.00,,---,0.00,VWS V14.01,2015-01-29 19:58:00,
2015-01-29 15:03:00,35.1,-2.0,30.06,East,87,0.0,0.0,20,0.00,,---,0.00,VWS V14.01,2015-01-29 20:03:00,
2015-01-29 15:08:00,34.9,-2.1,30.06,SE,125,0.0,0.0,20,0.00,,---,0.00,VWS V14.01,2015-01-29 20:08:00,
2015-01-29 15:13:00,34.5,-2.4,30.06,SE,137,0.0,0.0,20,0.00,,---,0.00,VWS V14.01,2015-01-29 20:13:00,
2015-01-29 15:18:00,34.3,-2.6,30.06,South,170,0.0,0.0,20,0.00,,---,0.00,VWS V14.01,2015-01-29 20:18:00,
2015-01-29 15:23:00,34.5,-2.4,30.06,South,172,0.0,0.0,20,0.00,,---,0.00,VWS V14.01,2015-01-29 20:23:00,
2015-01-29 15:28:00,34.3,-2.6,30.06,SSE,147,0.0,0.0,20,0.00,,---,0.00,VWS V14.01,2015-01-29 20:28:00,
2015-01-29 15:33:00,34.3,-2.6,30.06,West,261,0.0,0.0,20,0.00,,---,0.00,VWS V14.01,2015-01-29 20:33:00,
2015-01-29 15:38:00,34.9,-2.1,30.06,West,261,0.0,0.0,20,0.00,,---,0.00,VWS V14.01,2015-01-29 20:38:00,
2015-01-29 15:43:00,34.9,-2.1,30.06,West,262,0.0,0.0,20,0.00,,---,0.00,VWS V14.01,2015-01-29 20:43:00,
2015-01-29 15:48:00,34.7,-2.3,30.03,South,191,0.0,0.0,20,0.00,,---,0.00,VWS V14.01,2015-01-29 20:48:00,
2015-01-29 15:53:00,34.5,-2.4,30.03,SSW,194,0.0,0.0,20,0.00,,---,0.00,VWS V14.01,2015-01-29 20:53:00,
2015-01-29 15:58:00,34.5,-2.4,30.03,South,184,0.0,0.0,20,0.00,,---,0.00,VWS V14.01,2015-01-29 20:58:00,
2015-01-29 16:03:00,34.5,-2.4,30.03,SSE,152,0.0,0.0,20,0.00,,---,0.00,VWS V14.01,2015-01-29 21:03:00,
2015-01-29 16:08:00,34.3,-2.6,30.03,South,191,0.0,0.0,20,0.00,,---,0.00,VWS V14.01,2015-01-29 21:08:00,
2015-01-29 16:13:00,34.3,-2.6,30.03,South,189,0.0,0.0,20,0.00,,---,0.00,VWS V14.01,2015-01-29 21:13:00,